Weather History for KTVL - April, 2014

Change the Weather History Date:

Friday, April 4, 2014

  Actual Average Record
Temperature  
Mean Temperature 38 °F 38 °F  
Max Temperature 46 °F 51 °F 69 °F (2000)
Min Temperature 30 °F 25 °F 13 °F (1999)
Degree Days  
Heating Degree Days 26 27  
Month to date heating degree days 98 108  
Since 1 July heating degree days 5498 6260  
Cooling Degree Days 0 0  
Month to date cooling degree days 0 0  
Year to date cooling degree days 0 0  
Moisture  
Dew Point 21 °F    
Average Humidity 50    
Maximum Humidity 72    
Minimum Humidity 27    
Precipitation  
Precipitation 0.00 in - 1.31 in (1938)
Month to date precipitation 0.05  
Year to date precipitation 10.39  
Sea Level Pressure  
Sea Level Pressure 29.93 in    
Wind  
Wind Speed 9 mph (SSW)    
Max Wind Speed 20 mph    
Max Gust Speed 24 mph    
Visibility 10 miles    
Events      
T = Trace of Precipitation, MM = Missing Value Source: NWS Daily Summary

Daily Weather History Graph

Daily Weather History Graph

Search for Another Location

Airport or City:

Trip Planner

Search our weather history database for the weather conditions in past years. The results will help you decide how hot, cold, wet, or windy it might be!

Date:

Astronomy

Apr. 04, 2014 Rise Set
Actual Time 6:39 AM PDT 7:26 PM PDT
Civil Twilight 6:12 AM PDT 7:53 PM PDT
Nautical Twilight 5:40 AM PDT 8:25 PM PDT
Astronomical Twilight 5:08 AM PDT 8:58 PM PDT
Moon 10:02 AM PDT (4/4) No Moon Set
Length of Visible Light 13h 40m
Length of Day
12h 46m
Waxing Crescent, 26% of the Moon is Illuminated
Apr 4
Waxing Crescent
Apr 7
First Quarter
Apr 15
Full
Apr 22
Last Quarter
Apr 28
New

Hourly Weather History & Observations

Time (PDT) Temp. Windchill Dew Point Humidity Pressure Visibility Wind Dir Wind Speed Gust Speed Precip Events Conditions
12:53 AM - - - N/A% 29.98 in - North - - N/A   Unknown
1:53 AM - - - N/A% 29.96 in - North - - N/A   Unknown
2:53 AM - - - N/A% 29.96 in - North - - N/A   Unknown
3:53 AM - - - N/A% 29.96 in - North - - N/A   Unknown
5:53 AM - - - N/A% 29.94 in - North - - N/A   Unknown
6:53 AM - - - N/A% 29.94 in - North - - N/A   Unknown
7:53 AM - - - N/A% 29.95 in - North - - N/A   Unknown
8:53 AM - - - N/A% 29.93 in - North - - N/A   Unknown
9:53 AM 39.9 °F 36.7 °F 12.9 °F 33% 29.94 in 10.0 mi Variable 4.6 mph - N/A   Unknown
10:53 AM 42.1 °F 35.2 °F 12.0 °F 29% 29.94 in 10.0 mi SSW 12.7 mph - N/A   Clear
11:53 AM 44.1 °F 37.4 °F 12.9 °F 28% 29.92 in 10.0 mi SW 13.8 mph 23.0 mph N/A   Partly Cloudy
12:53 PM 45.0 °F 39.7 °F 15.1 °F 30% 29.92 in 10.0 mi SSW 10.4 mph 20.7 mph N/A   Mostly Cloudy
1:53 PM 44.1 °F 37.4 °F 23.0 °F 43% 29.91 in 10.0 mi South 13.8 mph - N/A   Mostly Cloudy
2:53 PM 43.0 °F 37.7 °F 23.0 °F 45% 29.90 in 10.0 mi SW 9.2 mph 18.4 mph N/A   Partly Cloudy
3:53 PM 43.0 °F 34.5 °F 21.9 °F 43% 29.90 in 10.0 mi South 19.6 mph 24.2 mph N/A   Partly Cloudy
4:53 PM 42.1 °F 35.7 °F 25.0 °F 51% 29.91 in 10.0 mi SSW 11.5 mph 20.7 mph N/A   Partly Cloudy
5:51 PM 39.2 °F 32.0 °F 24.8 °F 56% 29.92 in 10.0 mi South 11.5 mph - N/A   Mostly Cloudy
5:53 PM 39.0 °F 33.4 °F 24.1 °F 55% 29.92 in 10.0 mi SSW 8.1 mph - N/A   Mostly Cloudy
6:29 PM 37.9 °F 30.5 °F 24.1 °F 57% 29.92 in 10.0 mi SSW 11.5 mph - N/A   Mostly Cloudy
6:53 PM 37.0 °F 31.0 °F 24.1 °F 59% 29.93 in 10.0 mi SSW 8.1 mph - N/A   Mostly Cloudy
7:53 PM 36.0 °F - 24.1 °F 62% 29.94 in 10.0 mi North - - N/A   Mostly Cloudy
8:53 PM 35.1 °F 31.0 °F 24.1 °F 64% 29.96 in 10.0 mi Variable 4.6 mph - N/A   Overcast
9:53 PM 33.1 °F 30.0 °F 24.1 °F 70% 29.94 in 10.0 mi South 3.5 mph - N/A   Mostly Cloudy
10:53 PM 32.0 °F 28.7 °F 24.1 °F 73% 29.94 in 10.0 mi South 3.5 mph - N/A   Overcast
11:53 PM 30.9 °F 26.2 °F 21.9 °F 69% 29.94 in 10.0 mi South 4.6 mph - N/A   Clear